{"data":{"norad_id":40044,"epoch":"2026-09-19T16:05:23.265024Z","epoch_age_seconds":86025,"freshness":"FRESH","line1":"1 40044U 14033AL  26262.67040816  .00001500  00000+0  17621-3 0  9998","line2":"2 40044  97.8010  50.4710 0049127 127.1703 233.4014 14.85538328659497","mean_motion":14.85538328,"eccentricity":0.0049127,"inclination_deg":97.801,"raan_deg":50.471,"arg_perigee_deg":127.1703,"mean_anomaly_deg":233.4014,"bstar":0.00017621,"rev_number":65949,"period_min":96.934557180944,"perigee_km":577.55672143833,"apogee_km":646.23659815932,"semimajor_km":6990.0336597988,"source":"CELESTRAK","updated_at":"2026-09-20T09:00:34.867037Z"}}